Weather History for Fremont, MI

Change the Weather History Date:

Wednesday, July 10, 2013

  Actual Average (KMKG) Record (KMKG)
Temperature  
Mean Temperature 68 °F 71 °F  
Max Temperature 77 °F 81 °F 89 °F (1948)
Min Temperature 60 °F 62 °F 44 °F (1996)
Degree Days  
Heating Degree Days 0 0  
Month to date heating degree days 4  
Since 1 June heating degree days 70  
Since 1 July heating degree days 4  
Cooling Degree Days 4 7  
Month to date cooling degree days 61  
Year to date cooling degree days 195  
Since 1 June cooling degree days 166  
Growing Degree Days 18 (Base 50)    
Moisture  
Dew Point 63 °F    
Average Humidity 75    
Maximum Humidity 100    
Minimum Humidity 46    
Precipitation  
Precipitation 0.00 in 0.07 in 1.01 in (1922)
Month to date precipitation 0.72  
Year to date precipitation 15.54  
Snow  
Snow 0.00 in 0.00 in - ()
Month to date snowfall 0.0  
Since 1 June snowfall 0.0  
Since 1 July snowfall 0.0  
Snow Depth -    
Sea Level Pressure  
Sea Level Pressure 29.87 in    
Wind  
Wind Speed 9 mph (West)    
Max Wind Speed 18 mph    
Max Gust Speed 25 mph    
Visibility 8 miles    
Events Rain    
T = Trace of Precipitation, MM = Missing Value Source: NWS Daily Summary

Daily Weather History Graph

Daily Weather History Graph

Search for Another Location

Airport:

Trip Planner

Search our weather history database for the weather conditions in past years. The results will help you decide how hot, cold, wet, or windy it might be!

Date:

Astronomy

Jul. 10, 2013 Rise Set
Actual Time 6:13 AM EDT 9:25 PM EDT
Civil Twilight 5:38 AM EDT 10:00 PM EDT
Nautical Twilight 4:53 AM EDT 10:45 PM EDT
Astronomical Twilight 3:58 AM EDT 11:39 PM EDT
Moon 8:39 AM EDT (7/10) 10:28 PM EDT (7/10)
Length of Visible Light 16h 21m
Length of Day
15h 12m
Waxing Crescent, 5% of the Moon is Illuminated
Jul 10
Waxing Crescent
Jul 15
First Quarter
Jul 22
Full
Jul 29
Last Quarter
Aug 6
New

Hourly Weather History & Observations

Time (EDT) Temp. Dew Point Humidity Pressure Visibility Wind Dir Wind Speed Gust Speed Precip Events Conditions
12:15 AM 71.8 °F 71.1 °F 98% 29.84 in 5.0 mi South 6.9 mph - N/A   Scattered Clouds
12:35 AM 71.6 °F 70.9 °F 98% 29.83 in 5.0 mi South 8.1 mph - N/A   Scattered Clouds
12:55 AM 72.0 °F 71.6 °F 99% 29.83 in 5.0 mi South 6.9 mph - N/A   Mostly Cloudy
1:14 AM 72.7 °F 71.8 °F 97% 29.82 in 7.0 mi SSW 8.1 mph - N/A   Overcast
1:35 AM 73.4 °F 72.5 °F 97% 29.82 in 7.0 mi SSW 9.2 mph - N/A   Overcast
1:54 AM 73.8 °F 72.5 °F 96% 29.82 in 7.0 mi WSW 9.2 mph - N/A   Overcast
2:15 AM 74.3 °F 72.9 °F 95% 29.82 in 10.0 mi SW 9.2 mph - N/A   Overcast
2:35 AM 74.5 °F 73.4 °F 96% 29.81 in 10.0 mi WSW 8.1 mph - N/A   Scattered Clouds
2:54 AM 74.3 °F 72.9 °F 95% 29.80 in 10.0 mi SW 6.9 mph - N/A   Scattered Clouds
3:14 AM 73.4 °F 72.5 °F 97% 29.80 in 10.0 mi WSW 6.9 mph - N/A   Clear
3:35 AM 72.7 °F 71.8 °F 97% 29.81 in 7.0 mi WSW 6.9 mph - N/A   Clear
3:54 AM 72.1 °F 71.6 °F 98% 29.81 in 7.0 mi SW 5.8 mph - N/A   Clear
4:15 AM 71.4 °F 71.1 °F 99% 29.81 in 7.0 mi SW 4.6 mph - N/A   Clear
4:34 AM 71.1 °F 70.9 °F 99% 29.81 in 5.0 mi SW 5.8 mph - N/A   Clear
4:55 AM 70.9 °F 70.7 °F 99% 29.81 in 4.0 mi SW 4.6 mph - N/A   Scattered Clouds
5:14 AM 70.9 °F 70.7 °F 99% 29.81 in 4.0 mi SW 5.8 mph - N/A   Mostly Cloudy
5:35 AM 71.1 °F 71.1 °F 100% 29.81 in 3.0 mi SSW 5.8 mph - N/A   Mostly Cloudy
5:54 AM 70.9 °F 70.9 °F 100% 29.81 in 3.0 mi SSW 5.8 mph - N/A   Mostly Cloudy
6:14 AM 71.1 °F 71.1 °F 100% 29.82 in 1.8 mi SSW 6.9 mph - N/A   Overcast
6:35 AM 71.2 °F 71.2 °F 100% 29.82 in 1.8 mi SW 6.9 mph - N/A   Overcast
6:54 AM 71.6 °F 71.6 °F 100% 29.82 in 2.5 mi SW 4.6 mph - N/A   Scattered Clouds
7:15 AM 72.0 °F 71.6 °F 99% 29.83 in 5.0 mi WSW 5.8 mph - N/A   Clear
7:35 AM 72.1 °F 71.2 °F 97% 29.83 in 2.5 mi WSW 6.9 mph - N/A Rain Light Rain
7:54 AM 71.8 °F 70.9 °F 97% 29.82 in 7.0 mi SW 6.9 mph - N/A   Clear
8:15 AM 72.9 °F 71.2 °F 95% 29.81 in 10.0 mi West 6.9 mph - N/A   Clear
8:34 AM 74.1 °F 71.1 °F 90% 29.81 in 10.0 mi West 10.4 mph - N/A   Clear
8:55 AM 75.0 °F 71.4 °F 89% 29.82 in 7.0 mi West 5.8 mph - N/A   Clear
9:14 AM 75.6 °F 71.6 °F 87% 29.82 in 10.0 mi West 9.2 mph - N/A   Scattered Clouds
9:35 AM 75.2 °F 70.9 °F 86% 29.83 in 10.0 mi WNW 13.8 mph 18.4 mph N/A   Overcast
9:54 AM 75.2 °F 70.5 °F 85% 29.83 in 10.0 mi WNW 10.4 mph - N/A   Overcast
10:15 AM 75.4 °F 69.1 °F 81% 29.84 in 10.0 mi WNW 13.8 mph 18.4 mph N/A   Overcast
10:34 AM 75.2 °F 67.6 °F 77% 29.84 in 10.0 mi West 17.3 mph 23.0 mph N/A   Overcast
10:55 AM 75.2 °F 65.5 °F 72% 29.85 in 10.0 mi NW 12.7 mph 20.7 mph N/A   Overcast
11:14 AM 73.9 °F 64.2 °F 72% 29.85 in 10.0 mi WNW 18.4 mph - N/A   Overcast
11:35 AM 75.0 °F 64.2 °F 69% 29.85 in 10.0 mi WNW 18.4 mph 25.3 mph N/A   Scattered Clouds
11:54 AM 75.2 °F 62.6 °F 65% 29.85 in 10.0 mi West 15.0 mph 24.2 mph N/A   Scattered Clouds
12:14 PM 75.4 °F 61.0 °F 61% 29.86 in 10.0 mi WNW 12.7 mph 18.4 mph N/A   Scattered Clouds
12:34 PM 75.9 °F 59.2 °F 56% 29.86 in 10.0 mi WNW 17.3 mph 21.9 mph N/A   Clear
12:54 PM 75.6 °F 58.5 °F 55% 29.88 in 10.0 mi NW 12.7 mph 20.7 mph N/A   Clear
1:14 PM 76.1 °F 55.2 °F 48% 29.88 in 10.0 mi NW 16.1 mph 21.9 mph N/A   Scattered Clouds
1:34 PM 76.3 °F 54.7 °F 47% 29.89 in 10.0 mi NW 16.1 mph 23.0 mph N/A   Scattered Clouds
1:55 PM 75.6 °F 54.3 °F 48% 29.89 in 10.0 mi WNW 16.1 mph 21.9 mph N/A   Clear
2:14 PM 75.4 °F 54.9 °F 49% 29.89 in 10.0 mi NW 13.8 mph - N/A   Scattered Clouds
2:35 PM 75.0 °F 55.4 °F 50% 29.89 in 10.0 mi WNW 13.8 mph 18.4 mph N/A   Mostly Cloudy
2:54 PM 75.9 °F 55.0 °F 48% 29.89 in 10.0 mi West 16.1 mph 23.0 mph N/A   Mostly Cloudy
3:15 PM 77.2 °F 55.6 °F 47% 29.91 in 10.0 mi West 13.8 mph 20.7 mph N/A   Mostly Cloudy
3:34 PM 75.2 °F 56.1 °F 51% 29.91 in 10.0 mi WNW 15.0 mph 18.4 mph N/A   Overcast
3:55 PM 74.8 °F 55.0 °F 50% 29.91 in 10.0 mi NW 11.5 mph 20.7 mph N/A   Mostly Cloudy
4:15 PM 74.5 °F 54.7 °F 50% 29.92 in 10.0 mi NW 17.3 mph 21.9 mph N/A   Scattered Clouds
4:34 PM 72.5 °F 54.0 °F 52% 29.92 in 10.0 mi NW 17.3 mph - N/A   Scattered Clouds
4:55 PM 72.1 °F 53.8 °F 52% 29.92 in 10.0 mi NW 15.0 mph 20.7 mph N/A   Scattered Clouds
5:14 PM 73.8 °F 53.6 °F 49% 29.91 in 10.0 mi NW 15.0 mph 21.9 mph N/A   Scattered Clouds
5:35 PM 71.6 °F 53.4 °F 53% 29.91 in 10.0 mi NW 13.8 mph 21.9 mph N/A   Scattered Clouds
5:54 PM 73.6 °F 53.1 °F 49% 29.91 in 10.0 mi NW 16.1 mph 21.9 mph N/A   Clear
6:15 PM 73.8 °F 52.3 °F 47% 29.91 in 10.0 mi NW 16.1 mph 21.9 mph N/A   Clear
6:35 PM 73.8 °F 52.2 °F 47% 29.91 in 10.0 mi NW 11.5 mph 17.3 mph N/A   Clear
6:54 PM 73.0 °F 51.6 °F 47% 29.91 in 10.0 mi NW 12.7 mph 17.3 mph N/A   Clear
7:15 PM 73.4 °F 51.6 °F 46% 29.92 in 10.0 mi NW 11.5 mph 20.7 mph N/A   Clear
7:34 PM 72.9 °F 51.8 °F 47% 29.92 in 10.0 mi NW 11.5 mph - N/A   Clear
7:55 PM 72.1 °F 51.8 °F 49% 29.92 in 10.0 mi WNW 11.5 mph - N/A   Clear
8:15 PM 71.4 °F 52.0 °F 50% 29.93 in 10.0 mi NW 8.1 mph - N/A   Clear
8:34 PM 70.5 °F 52.5 °F 53% 29.93 in 10.0 mi NW 6.9 mph - N/A   Clear
8:55 PM 68.9 °F 53.1 °F 57% 29.94 in 10.0 mi NW 4.6 mph - N/A   Clear
9:15 PM 67.1 °F 54.3 °F 63% 29.95 in 10.0 mi Calm Calm - N/A   Clear
9:34 PM 65.7 °F 55.8 °F 70% 29.95 in 10.0 mi Calm Calm - N/A   Clear
9:55 PM 64.0 °F 55.9 °F 75% 29.95 in 10.0 mi Calm Calm - N/A   Clear
10:14 PM 62.8 °F 56.7 °F 80% 29.96 in 10.0 mi Calm Calm - N/A   Clear
10:35 PM 61.5 °F 56.5 °F 83% 29.98 in 10.0 mi Calm Calm - N/A   Clear
10:54 PM 61.3 °F 56.3 °F 83% 29.98 in 10.0 mi Calm Calm - N/A   Clear
11:15 PM 60.8 °F 56.3 °F 85% 29.99 in 10.0 mi Calm Calm - N/A   Clear
11:34 PM 60.1 °F 57.2 °F 90% 29.99 in 10.0 mi Calm Calm - N/A   Scattered Clouds
11:55 PM 60.8 °F 57.9 °F 90% 30.00 in 10.0 mi Calm Calm - N/A   Overcast